Regional Weather Roundup
Issued by NWS

Home | Current Version | Previous Version | Text Only | Print | Product List | Glossary Off
Versions: 1 2 3 4 5 6 7 8 9 10 11 12 13 14 15 16 17 18 19 20 21 22 23 24 25 26 27 28 29 30 31 32 33 34 35 36 37 38 39 40 41 42 43 44 45 46 47 48 49 50

363
ASUS45 KTFX 310110
RWRMT
MONTANA REGIONAL WEATHER ROUNDUP
NATIONAL WEATHER SERVICE GREAT FALLS MT
700 PM MDT TUE AUG 30 2016

NOTE: "FAIR" INDICATES FEW OR NO CLOUDS BELOW 12000 FEET WITH NO
SIGNIFICANT WEATHER AND/OR OBSTRUCTIONS TO VISIBILITY.

MTZ001>007-043-310200-
WEST OF THE DIVIDE

CITY           SKY/WX    TMP DP  RH WIND       PRES   REMARKS
KALISPELL      CLOUDY    83  52  34 N9        29.94S
MISSOULA       CLOUDY    81  44  27 S9        29.96S
BUTTE          CLOUDY    82  30  15 E17G23    30.11S
MULLAN PASS    CLOUDY    70  37  29 SE7       30.13F
DEER LODGE       N/A     81  36  19 N6        30.07F
EUREKA           N/A     84  46  26 NE3       29.92S
HAMILTON         N/A     73  48  40 CALM      30.01R
LIBBY            N/A     84  46  26 CALM      29.89F
PLAINS           N/A     84  52  33 CALM      29.93S
$$

MTZ008-052>055-310200-
SOUTHWEST MONTANA

CITY           SKY/WX    TMP DP  RH WIND       PRES   REMARKS
BOZEMAN        CLOUDY    83  40  21 SE8       30.06R
DILLON         CLOUDY    87  18   8 S16       30.06S
W YELLOWSTONE  CLOUDY    79  23  12 W7        30.25S
ENNIS          SUNNY     82  30  15 NW6       30.15S
THREE FORKS      N/A     89  89 100 CALM      30.02F HX 126
TWIN BRIDGES     N/A     85  32  15 CALM      30.04R
$$

MTZ009-010-012-014-046-048-049-054-310200-
EAST SLOPES AND CENTRAL MONTANA

CITY           SKY/WX    TMP DP  RH WIND       PRES   REMARKS
CUT BANK       CLOUDY    83  43  24 SE6       30.05S
GREAT FALLS    CLOUDY    82  44  26 NE13      30.03S
MALMSTROM AFB  SUNNY     81  47  29 NE6       30.02F
HELENA         CLOUDY    83  46  27 W6        30.00F
CHOTEAU          N/A     82  37  20 SE6       30.07S
CONRAD           N/A     82  50  32 NE1       30.07S
$$

MTZ011-013-016-021-045-047-050-051-310200-
NORTH CENTRAL MONTANA

CITY           SKY/WX    TMP DP  RH WIND       PRES   REMARKS
HAVRE          CLEAR     85  53  33 E12       30.00F
LEWISTOWN      CLEAR     79  52  38 E7        30.10S
N BAR RANCH      N/A     77  46  33 SE5       30.15S
CHINOOK          N/A     82  55  39 E8        30.01F
$$

MTZ017>020-022>027-061-062-310200-
NORTHEAST MONTANA

CITY           SKY/WX    TMP DP  RH WIND       PRES   REMARKS
GLASGOW        CLEAR     84  58  40 SE10      30.03S
JORDAN           N/A     84  53  34 E7        30.02F
SIDNEY         PTCLDY    80  61  52 E7        30.08S
WOLF POINT     CLEAR     84  60  44 E15G23    30.05S
PLENTYWOOD       N/A     81  52  36 E8        30.12S
POPLAR           N/A     81  57  44 E15       30.06S
SCOBEY           N/A     80  53  39 E9        30.10R
$$

MTZ028>42-056>058-310200-
SOUTHCENTRAL AND SOUTHEAST MONTANA

CITY           SKY/WX    TMP DP  RH WIND       PRES   REMARKS
BAKER          CLEAR     81  58  45 SE18      30.11F
BILLINGS       PTCLDY    85  46  25 NE8       30.05F
LIVINGSTON     CLOUDY    82  37  20 E10       30.08F
MILES CITY     CLEAR     90  52  27 SE16G24   29.99F
EKALAKA          N/A     79  54  41 SE13      30.10F
FORSYTH          N/A     90  48  24 N3        29.99F
ROUNDUP          N/A     82  46  28 N5        29.98S
$$

REGIONAL REPORTS...DAKOTAS

CITY           SKY/WX    TMP DP  RH WIND       PRES   REMARKS
WILLISTON      CLEAR     80  51  36 E6        30.13S
MINOT          CLEAR     77  47  34 E8        30.16F
DICKINSON      PTCLDY    76  54  46 SE12      30.12F
CROSBY           N/A     73  45  35 SE7       30.17S
WATFORD CITY     N/A     75  50  41 E10       30.13S
BISMARCK       CLEAR     74  53  48 E8        30.16F
GRAND FORKS    PTCLDY    73  54  51 NE8       30.17S
FARGO          CLEAR     71  56  58 CALM      30.18S
BUFFALO SD       N/A     81  58  45 SE13      30.08R
RAPID CITY     CLOUDY    77  61  57 E7        30.17S
$$

REGIONAL REPORTS...WYOMING/IDAHO/WASHINGTON

CITY           SKY/WX    TMP DP  RH WIND       PRES   REMARKS
GILLETTE       CLEAR     82  44  26 SE17      30.16F
SHERIDAN       CLEAR     88  31  13 SE12G22   30.06F
BUFFALO WY     CLEAR     83  28  13 S15       30.18R
CODY           CLEAR     84  30  14 SE12      30.13S
YELLOWSTONE LA   N/A     70  33  25 CALM      30.36F
IDAHO FALLS    CLOUDY    84  39  20 SW6       30.06F
SALMON         CLOUDY    82  39  21 E7        29.99R
BOISE          SUNNY     89  37  16 NE7       29.87F
SPOKANE        CLOUDY    82  41  23 W16       29.89S
$$

REGIONAL REPORTS...ALBERTA

CITY           SKY/WX    TMP DP  RH WIND       PRES   REMARKS
EDMONTON       SUNNY     73  52  46 E12G17    30.05F
CALGARY        PTSUNNY   75  55  50 SE14      30.04F
LETHBRIDGE     PTSUNNY   79  54  41 E7        29.99F
MEDICINE HAT   PTSUNNY   86  52  30 E12       29.98F
WATERTON GATE    N/A    N/A N/A N/A CALM        N/A
MILK RIVER       N/A     81  46  30 SE9         N/A
$$

REGIONAL REPORTS...SASKATCHEWAN

CITY           SKY/WX    TMP DP  RH WIND       PRES   REMARKS
SWIFT CURRENT  CLEAR     73  57  56 E12       30.11S
REGINA         CLEAR     77  48  36 E10G18    30.14S
SASKATOON      CLEAR     70  46  43 E14G20    30.20F
CYPRESS HILLS    N/A     75  45  33 SE6         N/A
VAL MARIE        N/A     79  54  41 SE7         N/A
ROCKGLEN         N/A     75  55  50 E7          N/A
ASSINIBOIA       N/A     72  50  46 E12         N/A
$$




USA.gov is the U.S. government's official web portal to all federal, state and local government web resources and services.